When you browse on this site, cookies collect data to enhance your experience and personalize the content and advertising you see.
Visit our Privacy Policy to learn more. By continuing to use the site, you agree to this use of cookies and data.
  • In Österreich
  • Länderverzeichnis
  • Für 7 Tage
  • Wassertemperatur
  • Satellitenkarten
  • Wetterkarte
  • News
  • Widgets
  • user-avatar
    Anmelden

    Stündliche Wetter Rokupr

    Heute, 21 Februar, Donnerstag

    Zeit Temperatur Niederschläge Wind Luftdruck Luftfeuchtigkeit
    00:00 +25°C° 0 mm 1 m/S 757 mmHg 82%
    01:00 +24°C° 0 mm 1 m/S 757 mmHg 83%
    02:00 +22°C° 0 mm 0 m/S 757 mmHg 84%
    03:00 +22°C° 0 mm 0 m/S 757 mmHg 83%
    04:00 +22°C° 0 mm 0 m/S 757 mmHg 82%
    05:00 +22°C° 0 mm 0 m/S 757 mmHg 81%
    06:00 +23°C° 0 mm 0 m/S 757 mmHg 76%
    07:00 +24°C° 0 mm 0 m/S 758 mmHg 70%
    08:00 +26°C° 0 mm 0 m/S 758 mmHg 64%
    09:00 +29°C° 0 mm 0 m/S 758 mmHg 53%
    10:00 +32°C° 0 mm 0 m/S 758 mmHg 41%
    11:00 +36°C° 0 mm 0 m/S 758 mmHg 29%
    12:00 +40°C° 0 mm 1 m/S 757 mmHg 27%
    13:00 +40°C° 0 mm 1 m/S 756 mmHg 25%
    14:00 +41°C° 0 mm 2 m/S 756 mmHg 23%
    15:00 +39°C° 0 mm 2 m/S 756 mmHg 28%
    16:00 +37°C° 0 mm 3 m/S 756 mmHg 32%
    17:00 +35°C° 0 mm 4 m/S 756 mmHg 37%
    18:00 +33°C° 0 mm 3 m/S 756 mmHg 44%
    19:00 +30°C° 0 mm 3 m/S 757 mmHg 51%
    20:00 +28°C° 0 mm 2 m/S 757 mmHg 59%
    21:00 +28°C° 0 mm 2 m/S 758 mmHg 62%
    22:00 +27°C° 0 mm 1 m/S 758 mmHg 65%
    23:00 +27°C° 0 mm 1 m/S 758 mmHg 68%

    Morgen, 22 Februar, Freitag

    Zeit Temperatur Niederschläge Wind Luftdruck Luftfeuchtigkeit
    00:00 +26°C° 0 mm 1 m/S 758 mmHg 70%
    01:00 +24°C° 0 mm 0 m/S 758 mmHg 72%
    02:00 +23°C° 0 mm 0 m/S 757 mmHg 73%
    03:00 +23°C° 0 mm 0 m/S 757 mmHg 74%
    04:00 +23°C° 0 mm 0 m/S 757 mmHg 75%
    05:00 +23°C° 0 mm 0 m/S 757 mmHg 76%
    06:00 +26°C° 0 mm 1 m/S 758 mmHg 69%
    07:00 +28°C° 0 mm 1 m/S 758 mmHg 62%
    08:00 +30°C° 0 mm 2 m/S 759 mmHg 55%
    09:00 +31°C° 0 mm 2 m/S 759 mmHg 48%
    10:00 +34°C° 0 mm 2 m/S 758 mmHg 40%
    11:00 +36°C° 0 mm 2 m/S 758 mmHg 33%
    12:00 +36°C° 0 mm 2 m/S 757 mmHg 32%
    13:00 +36°C° 0 mm 2 m/S 756 mmHg 30%
    14:00 +37°C° 0 mm 2 m/S 755 mmHg 29%
    15:00 +36°C° 0 mm 2 m/S 755 mmHg 31%
    16:00 +35°C° 0 mm 3 m/S 755 mmHg 34%
    17:00 +34°C° 0 mm 3 m/S 754 mmHg 36%
    18:00 +31°C° 0 mm 3 m/S 755 mmHg 44%
    19:00 +29°C° 0 mm 3 m/S 756 mmHg 52%
    20:00 +27°C° 0 mm 2 m/S 756 mmHg 59%
    21:00 +27°C° 0 mm 2 m/S 757 mmHg 63%
    22:00 +26°C° 0 mm 2 m/S 757 mmHg 67%
    23:00 +25°C° 0 mm 1 m/S 757 mmHg 71%

    übermorgen, 23 Februar, Samstag

    Zeit Temperatur Niederschläge Wind Luftdruck Luftfeuchtigkeit
    00:00 +25°C° 0 mm 1 m/S 757 mmHg 73%
    01:00 +25°C° 0 mm 1 m/S 757 mmHg 74%
    02:00 +24°C° 0 mm 1 m/S 756 mmHg 75%
    03:00 +24°C° 0 mm 1 m/S 756 mmHg 76%
    04:00 +23°C° 0 mm 1 m/S 756 mmHg 76%
    05:00 +23°C° 0 mm 1 m/S 756 mmHg 76%
    06:00 +25°C° 0 mm 1 m/S 757 mmHg 68%
    07:00 +25°C° 0 mm 0 m/S 757 mmHg 60%
    08:00 +27°C° 0 mm 0 m/S 758 mmHg 52%
    09:00 +30°C° 0 mm 0 m/S 758 mmHg 41%
    10:00 +36°C° 0 mm 1 m/S 758 mmHg 31%
    11:00 +40°C° 0 mm 1 m/S 757 mmHg 20%
    12:00 +41°C° 0 mm 1 m/S 756 mmHg 18%
    13:00 +42°C° 0 mm 2 m/S 755 mmHg 17%
    14:00 +43°C° 0 mm 2 m/S 754 mmHg 15%
    15:00 +41°C° 0 mm 2 m/S 753 mmHg 20%
    16:00 +39°C° 0 mm 3 m/S 753 mmHg 25%
    17:00 +37°C° 0 mm 3 m/S 753 mmHg 30%
    18:00 +34°C° 0 mm 3 m/S 753 mmHg 44%
    19:00 +30°C° 0 mm 2 m/S 754 mmHg 58%
    20:00 +27°C° 0 mm 2 m/S 755 mmHg 71%
    21:00 +26°C° 0 mm 2 m/S 755 mmHg 74%
    22:00 +26°C° 0 mm 1 m/S 755 mmHg 77%
    23:00 +26°C° 0 mm 1 m/S 756 mmHg 80%

    24 Februar, Sonntag

    Zeit Temperatur Niederschläge Wind Luftdruck Luftfeuchtigkeit
    00:00 +25°C° 0 mm 1 m/S 756 mmHg 82%
    01:00 +25°C° 0 mm 1 m/S 755 mmHg 84%
    02:00 +24°C° 0 mm 1 m/S 755 mmHg 86%
    03:00 +24°C° 0 mm 1 m/S 755 mmHg 88%
    04:00 +24°C° 0 mm 1 m/S 755 mmHg 89%
    05:00 +21°C° 0 mm 0 m/S 755 mmHg 91%
    06:00 +23°C° 0 mm 0 m/S 756 mmHg 82%
    07:00 +25°C° 0 mm 0 m/S 756 mmHg 73%
    08:00 +27°C° 0 mm 0 m/S 757 mmHg 64%
    09:00 +30°C° 0 mm 0 m/S 757 mmHg 52%
    10:00 +35°C° 0 mm 1 m/S 757 mmHg 41%
    11:00 +39°C° 0 mm 1 m/S 757 mmHg 29%
    12:00 +40°C° 0 mm 1 m/S 756 mmHg 27%
    13:00 +40°C° 0 mm 2 m/S 754 mmHg 24%
    14:00 +41°C° 0 mm 2 m/S 753 mmHg 22%
    15:00 +39°C° 0 mm 3 m/S 753 mmHg 29%
    16:00 +36°C° 0 mm 3 m/S 753 mmHg 37%
    17:00 +34°C° 0 mm 4 m/S 753 mmHg 45%
    18:00 +32°C° 0 mm 4 m/S 754 mmHg 55%
    19:00 +29°C° 0 mm 3 m/S 754 mmHg 65%
    20:00 +27°C° 0 mm 2 m/S 755 mmHg 75%
    21:00 +27°C° 0 mm 2 m/S 755 mmHg 78%
    22:00 +26°C° 0 mm 2 m/S 756 mmHg 81%
    23:00 +26°C° 0 mm 2 m/S 756 mmHg 84%

    25 Februar, Montag

    Zeit Temperatur Niederschläge Wind Luftdruck Luftfeuchtigkeit
    00:00 +25°C° 0 mm 1 m/S 755 mmHg 87%
    01:00 +25°C° 0 mm 1 m/S 755 mmHg 89%
    02:00 +25°C° 0 mm 1 m/S 755 mmHg 92%
    03:00 +24°C° 0 mm 1 m/S 755 mmHg 92%
    04:00 +24°C° 0 mm 1 m/S 755 mmHg 93%
    05:00 +24°C° 0 mm 1 m/S 755 mmHg 93%
    06:00 +25°C° 0 mm 1 m/S 756 mmHg 85%
    07:00 +27°C° 0 mm 1 m/S 756 mmHg 77%
    08:00 +29°C° 0 mm 1 m/S 756 mmHg 68%
    09:00 +31°C° 0 mm 1 m/S 756 mmHg 56%
    10:00 +34°C° 0 mm 1 m/S 756 mmHg 44%
    11:00 +38°C° 0 mm 2 m/S 756 mmHg 32%
    12:00 +38°C° 0 mm 2 m/S 755 mmHg 31%
    13:00 +38°C° 0 mm 3 m/S 754 mmHg 29%
    14:00 +38°C° 0 mm 3 m/S 753 mmHg 28%
    15:00 +37°C° 0 mm 3 m/S 753 mmHg 33%
    16:00 +35°C° 0 mm 4 m/S 753 mmHg 38%
    17:00 +33°C° 0 mm 4 m/S 753 mmHg 43%
    18:00 +30°C° 0 mm 3 m/S 754 mmHg 52%
    19:00 +28°C° 0 mm 3 m/S 754 mmHg 62%
    20:00 +26°C° 0 mm 2 m/S 755 mmHg 72%
    21:00 +26°C° 0 mm 2 m/S 755 mmHg 75%
    22:00 +26°C° 0 mm 2 m/S 755 mmHg 77%
    23:00 +25°C° 0 mm 2 m/S 755 mmHg 80%

    26 Februar, Dienstag

    Zeit Temperatur Niederschläge Wind Luftdruck Luftfeuchtigkeit
    00:00 +25°C° 0 mm 1 m/S 755 mmHg 83%
    01:00 +24°C° 0 mm 1 m/S 754 mmHg 85%
    02:00 +22°C° 0 mm 0 m/S 754 mmHg 88%
    03:00 +22°C° 0 mm 0 m/S 754 mmHg 89%
    04:00 +21°C° 0 mm 0 m/S 755 mmHg 90%
    05:00 +21°C° 0 mm 0 m/S 755 mmHg 91%
    06:00 +23°C° 0 mm 0 m/S 755 mmHg 82%
    07:00 +25°C° 0 mm 0 m/S 756 mmHg 73%
    08:00 +27°C° 0 mm 0 m/S 756 mmHg 64%
    09:00 +31°C° 0 mm 1 m/S 756 mmHg 53%
    10:00 +34°C° 0 mm 1 m/S 756 mmHg 43%
    11:00 +37°C° 0 mm 2 m/S 756 mmHg 32%
    12:00 +38°C° 0 mm 2 m/S 755 mmHg 31%
    13:00 +38°C° 0 mm 3 m/S 754 mmHg 30%
    14:00 +38°C° 0 mm 3 m/S 753 mmHg 28%
    15:00 +37°C° 0 mm 4 m/S 753 mmHg 32%
    16:00 +35°C° 0 mm 4 m/S 753 mmHg 36%
    17:00 +33°C° 0 mm 4 m/S 753 mmHg 40%
    18:00 +30°C° 0 mm 3 m/S 754 mmHg 49%
    19:00 +29°C° 0 mm 3 m/S 755 mmHg 59%
    20:00 +27°C° 0 mm 2 m/S 755 mmHg 68%
    21:00 +26°C° 0 mm 2 m/S 756 mmHg 71%
    22:00 +26°C° 0 mm 2 m/S 756 mmHg 74%
    23:00 +26°C° 0 mm 2 m/S 756 mmHg 76%
    Mehr zeigen